Year,Month,Day,Hour,Minute,Value (Times are PST for temperature in C)
2018,07,16,00,00,17.80
2018,07,16,00,01,17.80
2018,07,16,00,02,17.80
2018,07,16,00,03,17.80
2018,07,16,00,04,17.80
2018,07,16,00,05,17.80
2018,07,16,00,06,17.80
2018,07,16,00,07,17.70
2018,07,16,00,08,17.70
2018,07,16,00,09,17.70
2018,07,16,00,10,17.60
2018,07,16,00,11,17.60
2018,07,16,00,12,17.50
2018,07,16,00,13,17.50
2018,07,16,00,14,17.40
2018,07,16,00,15,17.40
2018,07,16,00,16,17.40
2018,07,16,00,17,17.30
2018,07,16,00,18,17.30
2018,07,16,00,19,17.30
2018,07,16,00,20,17.20
2018,07,16,00,21,17.20
2018,07,16,00,22,17.20
2018,07,16,00,23,17.20
2018,07,16,00,24,17.10
2018,07,16,00,25,17.10
2018,07,16,00,26,17.10
2018,07,16,00,27,17.00
2018,07,16,00,28,17.00
2018,07,16,00,29,17.00
2018,07,16,00,30,16.90
2018,07,16,00,31,16.90
2018,07,16,00,32,16.80
2018,07,16,00,33,16.80
2018,07,16,00,34,16.80
2018,07,16,00,35,16.80
2018,07,16,00,36,16.70
2018,07,16,00,37,16.70
2018,07,16,00,38,16.70
2018,07,16,00,39,16.70
2018,07,16,00,40,16.70
2018,07,16,00,41,16.60
2018,07,16,00,42,16.60
2018,07,16,00,43,16.60
2018,07,16,00,44,16.60
2018,07,16,00,45,16.60
2018,07,16,00,46,16.60
2018,07,16,00,47,16.60
2018,07,16,00,48,16.60
2018,07,16,00,49,16.60
2018,07,16,00,50,16.60
2018,07,16,00,51,16.60
2018,07,16,00,52,16.60
2018,07,16,00,53,16.60
2018,07,16,00,54,16.70
2018,07,16,00,55,16.70
2018,07,16,00,56,16.70
2018,07,16,00,57,16.70
2018,07,16,00,58,16.70
2018,07,16,00,59,16.80
2018,07,16,01,00,16.80
2018,07,16,01,01,16.80
2018,07,16,01,02,16.80
2018,07,16,01,03,16.70
2018,07,16,01,04,16.70
2018,07,16,01,05,16.70
2018,07,16,01,06,16.70
2018,07,16,01,07,16.70
2018,07,16,01,08,16.60
2018,07,16,01,09,16.60
2018,07,16,01,10,16.60
2018,07,16,01,11,16.60
2018,07,16,01,12,16.60
2018,07,16,01,13,16.50
2018,07,16,01,14,16.50
2018,07,16,01,15,16.40
2018,07,16,01,16,16.40
2018,07,16,01,17,16.40
2018,07,16,01,18,16.40
2018,07,16,01,19,16.30
2018,07,16,01,20,16.30
2018,07,16,01,21,16.30
2018,07,16,01,22,16.30
2018,07,16,01,23,16.30
2018,07,16,01,24,16.30
2018,07,16,01,25,16.20
2018,07,16,01,26,16.20
2018,07,16,01,27,16.20
2018,07,16,01,28,16.20
2018,07,16,01,29,16.20
2018,07,16,01,30,16.20
2018,07,16,01,31,16.10
2018,07,16,01,32,16.10
2018,07,16,01,33,16.10
2018,07,16,01,34,16.10
2018,07,16,01,35,16.10
2018,07,16,01,36,16.10
2018,07,16,01,37,16.10
2018,07,16,01,38,16.10
2018,07,16,01,39,16.10
2018,07,16,01,40,16.10
2018,07,16,01,41,16.10
2018,07,16,01,42,16.10
2018,07,16,01,43,16.10
2018,07,16,01,44,16.00
2018,07,16,01,45,16.00
2018,07,16,01,46,16.00
2018,07,16,01,47,15.90
2018,07,16,01,48,15.90
2018,07,16,01,49,15.80
2018,07,16,01,50,15.80
2018,07,16,01,51,15.80
2018,07,16,01,52,15.70
2018,07,16,01,53,15.70
2018,07,16,01,54,15.60
2018,07,16,01,55,15.50
2018,07,16,01,56,15.50
2018,07,16,01,57,15.40
2018,07,16,01,58,15.30
2018,07,16,01,59,15.30
2018,07,16,02,00,15.30
2018,07,16,02,01,15.20
2018,07,16,02,02,15.20
2018,07,16,02,03,15.20
2018,07,16,02,04,15.10
2018,07,16,02,05,15.10
2018,07,16,02,06,15.10
2018,07,16,02,07,15.10
2018,07,16,02,08,15.10
2018,07,16,02,09,15.00
2018,07,16,02,10,15.00
2018,07,16,02,11,15.00
2018,07,16,02,12,14.90
2018,07,16,02,13,14.90
2018,07,16,02,14,14.90
2018,07,16,02,15,14.80
2018,07,16,02,16,14.80
2018,07,16,02,17,14.80
2018,07,16,02,18,14.90
2018,07,16,02,19,14.90
2018,07,16,02,20,14.90
2018,07,16,02,21,14.90
2018,07,16,02,22,14.80
2018,07,16,02,23,14.80
2018,07,16,02,24,14.80
2018,07,16,02,25,14.80
2018,07,16,02,26,14.80
2018,07,16,02,27,14.80
2018,07,16,02,28,14.80
2018,07,16,02,29,14.90
2018,07,16,02,30,14.80
2018,07,16,02,31,14.90
2018,07,16,02,32,14.80
2018,07,16,02,33,14.80
2018,07,16,02,34,14.80
2018,07,16,02,35,14.80
2018,07,16,02,36,14.80
2018,07,16,02,37,14.80
2018,07,16,02,38,14.90
2018,07,16,02,39,14.90
2018,07,16,02,40,14.90
2018,07,16,02,41,14.90
2018,07,16,02,42,14.90
2018,07,16,02,43,14.80
2018,07,16,02,44,14.80
2018,07,16,02,45,14.80
2018,07,16,02,46,14.90
2018,07,16,02,47,14.90
2018,07,16,02,48,14.90
2018,07,16,02,49,14.90
2018,07,16,02,50,14.90
2018,07,16,02,51,14.90
2018,07,16,02,52,14.90
2018,07,16,02,53,14.90
2018,07,16,02,54,14.80
2018,07,16,02,55,14.80
2018,07,16,02,56,14.80
2018,07,16,02,57,14.80
2018,07,16,02,58,14.80
2018,07,16,02,59,14.70
2018,07,16,03,00,14.70
2018,07,16,03,01,14.70
2018,07,16,03,02,14.70
2018,07,16,03,03,14.60
2018,07,16,03,04,14.60
2018,07,16,03,05,14.50
2018,07,16,03,06,14.50
2018,07,16,03,07,14.40
2018,07,16,03,08,14.40
2018,07,16,03,09,14.30
2018,07,16,03,10,14.30
2018,07,16,03,11,14.30
2018,07,16,03,12,14.20
2018,07,16,03,13,14.20
2018,07,16,03,14,14.10
2018,07,16,03,15,14.10
2018,07,16,03,16,14.10
2018,07,16,03,17,14.00
2018,07,16,03,18,14.00
2018,07,16,03,19,13.90
2018,07,16,03,20,13.90
2018,07,16,03,21,13.90
2018,07,16,03,22,13.90
2018,07,16,03,23,13.90
2018,07,16,03,24,13.90
2018,07,16,03,25,13.80
2018,07,16,03,26,13.80
2018,07,16,03,27,13.90
2018,07,16,03,28,13.90
2018,07,16,03,29,13.90
2018,07,16,03,30,13.90
2018,07,16,03,31,13.80
2018,07,16,03,32,13.80
2018,07,16,03,33,13.80
2018,07,16,03,34,13.80
2018,07,16,03,35,13.80
2018,07,16,03,36,13.80
2018,07,16,03,37,13.80
2018,07,16,03,38,13.80
2018,07,16,03,39,13.80
2018,07,16,03,40,13.80
2018,07,16,03,41,13.80
2018,07,16,03,42,13.80
2018,07,16,03,43,13.80
2018,07,16,03,44,13.80
2018,07,16,03,45,13.80
2018,07,16,03,46,13.80
2018,07,16,03,47,13.80
2018,07,16,03,48,13.80
2018,07,16,03,49,13.80
2018,07,16,03,50,13.80
2018,07,16,03,51,13.80
2018,07,16,03,52,13.80
2018,07,16,03,53,13.70
2018,07,16,03,54,13.70
2018,07,16,03,55,13.70
2018,07,16,03,56,13.70
2018,07,16,03,57,13.70
2018,07,16,03,58,13.70
2018,07,16,03,59,13.70
2018,07,16,04,00,13.70
2018,07,16,04,01,13.70
2018,07,16,04,02,13.70
2018,07,16,04,03,13.70
2018,07,16,04,04,13.70
2018,07,16,04,05,13.60
2018,07,16,04,06,13.60
2018,07,16,04,07,13.60
2018,07,16,04,08,13.60
2018,07,16,04,09,13.60
2018,07,16,04,10,13.60
2018,07,16,04,11,13.60
2018,07,16,04,12,13.60
2018,07,16,04,13,13.60
2018,07,16,04,14,13.60
2018,07,16,04,15,13.60
2018,07,16,04,16,13.60
2018,07,16,04,17,13.60
2018,07,16,04,18,13.60
2018,07,16,04,19,13.60
2018,07,16,04,20,13.50
2018,07,16,04,21,13.50
2018,07,16,04,22,13.50
2018,07,16,04,23,13.50
2018,07,16,04,24,13.40
2018,07,16,04,25,13.40
2018,07,16,04,26,13.40
2018,07,16,04,27,13.40
2018,07,16,04,28,13.40
2018,07,16,04,29,13.40
2018,07,16,04,30,13.40
2018,07,16,04,31,13.40
2018,07,16,04,32,13.40
2018,07,16,04,33,13.40
2018,07,16,04,34,13.40
2018,07,16,04,35,13.40
2018,07,16,04,36,13.40
2018,07,16,04,37,13.40
2018,07,16,04,38,13.40
2018,07,16,04,39,13.40
2018,07,16,04,40,13.40
2018,07,16,04,41,13.40
2018,07,16,04,42,13.40
2018,07,16,04,43,13.40
2018,07,16,04,44,13.40
2018,07,16,04,45,13.50
2018,07,16,04,46,13.50
2018,07,16,04,47,13.50
2018,07,16,04,48,13.50
2018,07,16,04,49,13.50
2018,07,16,04,50,13.50
2018,07,16,04,51,13.50
2018,07,16,04,52,13.50
2018,07,16,04,53,13.50
2018,07,16,04,54,13.50
2018,07,16,04,55,13.40
2018,07,16,04,56,13.40
2018,07,16,04,57,13.40
2018,07,16,04,58,13.40
2018,07,16,04,59,13.40
2018,07,16,05,00,13.40
2018,07,16,05,01,13.30
2018,07,16,05,02,13.30
2018,07,16,05,03,13.30
2018,07,16,05,04,13.20
2018,07,16,05,05,13.20
2018,07,16,05,06,13.20
2018,07,16,05,07,13.10
2018,07,16,05,08,13.10
2018,07,16,05,09,13.10
2018,07,16,05,10,13.10
2018,07,16,05,11,13.10
2018,07,16,05,12,13.10
2018,07,16,05,13,13.10
2018,07,16,05,14,13.10
2018,07,16,05,15,13.10
2018,07,16,05,16,13.00
2018,07,16,05,17,13.00
2018,07,16,05,18,13.00
2018,07,16,05,19,13.00
2018,07,16,05,20,13.00
2018,07,16,05,21,13.00
2018,07,16,05,22,12.90
2018,07,16,05,23,12.90
2018,07,16,05,24,12.90
2018,07,16,05,25,12.90
2018,07,16,05,26,12.90
2018,07,16,05,27,13.00
2018,07,16,05,28,13.00
2018,07,16,05,29,13.00
2018,07,16,05,30,13.00
2018,07,16,05,31,13.10
2018,07,16,05,32,13.10
2018,07,16,05,33,13.10
2018,07,16,05,34,13.10
2018,07,16,05,35,13.10
2018,07,16,05,36,13.10
2018,07,16,05,37,13.10
2018,07,16,05,38,13.10
2018,07,16,05,39,13.00
2018,07,16,05,40,13.00
2018,07,16,05,41,12.90
2018,07,16,05,42,12.80
2018,07,16,05,43,12.80
2018,07,16,05,44,12.70
2018,07,16,05,45,12.70
2018,07,16,05,46,12.60
2018,07,16,05,47,12.50
2018,07,16,05,48,12.50
2018,07,16,05,49,12.50
2018,07,16,05,50,12.50
2018,07,16,05,51,12.50
2018,07,16,05,52,12.60
2018,07,16,05,53,12.70
2018,07,16,05,54,12.80
2018,07,16,05,55,12.80
2018,07,16,05,56,12.90
2018,07,16,05,57,12.90
2018,07,16,05,58,13.00
2018,07,16,05,59,13.00
2018,07,16,06,00,13.10
2018,07,16,06,01,13.10
2018,07,16,06,02,13.10
2018,07,16,06,03,13.10
2018,07,16,06,04,13.10
2018,07,16,06,05,13.10
2018,07,16,06,06,13.20
2018,07,16,06,07,13.20
2018,07,16,06,08,13.20
2018,07,16,06,09,13.20
2018,07,16,06,10,13.20
2018,07,16,06,11,13.20
2018,07,16,06,12,13.20
2018,07,16,06,13,13.30
2018,07,16,06,14,13.30
2018,07,16,06,15,13.30
2018,07,16,06,16,13.20
2018,07,16,06,17,13.20
2018,07,16,06,18,13.20
2018,07,16,06,19,13.20
2018,07,16,06,20,13.20
2018,07,16,06,21,13.20
2018,07,16,06,22,13.20
2018,07,16,06,23,13.20
2018,07,16,06,24,13.20
2018,07,16,06,25,13.20
2018,07,16,06,26,13.20
2018,07,16,06,27,13.20
2018,07,16,06,28,13.20
2018,07,16,06,29,13.20
2018,07,16,06,30,13.20
2018,07,16,06,31,13.30
2018,07,16,06,32,13.30
2018,07,16,06,33,13.40
2018,07,16,06,34,13.40
2018,07,16,06,35,13.40
2018,07,16,06,36,13.50
2018,07,16,06,37,13.50
2018,07,16,06,38,13.60
2018,07,16,06,39,13.60
2018,07,16,06,40,13.60
2018,07,16,06,41,13.70
2018,07,16,06,42,13.70
2018,07,16,06,43,13.70
2018,07,16,06,44,13.70
2018,07,16,06,45,13.80
2018,07,16,06,46,13.80
2018,07,16,06,47,13.90
2018,07,16,06,48,14.00
2018,07,16,06,49,14.00
2018,07,16,06,50,14.10
2018,07,16,06,51,14.20
2018,07,16,06,52,14.30
2018,07,16,06,53,14.30
2018,07,16,06,54,14.40
2018,07,16,06,55,14.50
2018,07,16,06,56,14.60
2018,07,16,06,57,14.70
2018,07,16,06,58,14.80
2018,07,16,06,59,14.90
2018,07,16,07,00,14.90
2018,07,16,07,01,15.00
2018,07,16,07,02,15.10
2018,07,16,07,03,15.20
2018,07,16,07,04,15.20
2018,07,16,07,05,15.30
2018,07,16,07,06,15.30
2018,07,16,07,07,15.40
2018,07,16,07,08,15.50
2018,07,16,07,09,15.50
2018,07,16,07,10,15.60
2018,07,16,07,11,15.60
2018,07,16,07,12,15.70
2018,07,16,07,13,15.70
2018,07,16,07,14,15.80
2018,07,16,07,15,15.80
2018,07,16,07,16,15.90
2018,07,16,07,17,15.90
2018,07,16,07,18,15.90
2018,07,16,07,19,16.00
2018,07,16,07,20,16.00
2018,07,16,07,21,16.10
2018,07,16,07,22,16.10
2018,07,16,07,23,16.10
2018,07,16,07,24,16.20
2018,07,16,07,25,16.20
2018,07,16,07,26,16.30
2018,07,16,07,27,16.30
2018,07,16,07,28,16.30
2018,07,16,07,29,16.40
2018,07,16,07,30,16.40
2018,07,16,07,31,16.40
2018,07,16,07,32,16.50
2018,07,16,07,33,16.50
2018,07,16,07,34,16.60
2018,07,16,07,35,16.60
2018,07,16,07,36,16.60
2018,07,16,07,37,16.70
2018,07,16,07,38,16.70
2018,07,16,07,39,16.80
2018,07,16,07,40,16.80
2018,07,16,07,41,16.90
2018,07,16,07,42,16.90
2018,07,16,07,43,16.90
2018,07,16,07,44,17.00
2018,07,16,07,45,17.00
2018,07,16,07,46,17.10
2018,07,16,07,47,17.10
2018,07,16,07,48,17.20
2018,07,16,07,49,17.20
2018,07,16,07,50,17.20
2018,07,16,07,51,17.30
2018,07,16,07,52,17.40
2018,07,16,07,53,17.40
2018,07,16,07,54,17.50
2018,07,16,07,55,17.50
2018,07,16,07,56,17.50
2018,07,16,07,57,17.60
2018,07,16,07,58,17.60
2018,07,16,07,59,17.60
2018,07,16,08,00,17.70
2018,07,16,08,01,17.80
2018,07,16,08,02,17.80
2018,07,16,08,03,17.80
2018,07,16,08,04,17.90
2018,07,16,08,05,17.90
2018,07,16,08,06,17.90
2018,07,16,08,07,17.90
2018,07,16,08,08,18.00
2018,07,16,08,09,18.00
2018,07,16,08,10,18.10
2018,07,16,08,11,18.10
2018,07,16,08,12,18.20
2018,07,16,08,13,18.20
2018,07,16,08,14,18.30
2018,07,16,08,15,18.30
2018,07,16,08,16,18.30
2018,07,16,08,17,18.30
2018,07,16,08,18,18.40
2018,07,16,08,19,18.40
2018,07,16,08,20,18.40
2018,07,16,08,21,18.40
2018,07,16,08,22,18.50
2018,07,16,08,23,18.60
2018,07,16,08,24,18.60
2018,07,16,08,25,18.70
2018,07,16,08,26,18.80
2018,07,16,08,27,18.80
2018,07,16,08,28,18.80
2018,07,16,08,29,18.80
2018,07,16,08,30,18.80
2018,07,16,08,31,18.80
2018,07,16,08,32,18.90
2018,07,16,08,33,18.90
2018,07,16,08,34,18.90
2018,07,16,08,35,18.90
2018,07,16,08,36,19.00
2018,07,16,08,37,19.10
2018,07,16,08,38,19.10
2018,07,16,08,39,19.20
2018,07,16,08,40,19.20
2018,07,16,08,41,19.20
2018,07,16,08,42,19.30
2018,07,16,08,43,19.30
2018,07,16,08,44,19.30
2018,07,16,08,45,19.30
2018,07,16,08,46,19.30
2018,07,16,08,47,19.30
2018,07,16,08,48,19.20
2018,07,16,08,49,19.20
2018,07,16,08,50,19.20
2018,07,16,08,51,19.20
2018,07,16,08,52,19.20
2018,07,16,08,53,19.30
2018,07,16,08,54,19.30
2018,07,16,08,55,19.30
2018,07,16,08,56,19.30
2018,07,16,08,57,19.30
2018,07,16,08,58,19.30
2018,07,16,08,59,19.30
2018,07,16,09,00,19.30
2018,07,16,09,01,19.40
2018,07,16,09,02,19.40
2018,07,16,09,03,19.50
2018,07,16,09,04,19.60
2018,07,16,09,05,19.60
2018,07,16,09,06,19.70
2018,07,16,09,07,19.70
2018,07,16,09,08,19.70
2018,07,16,09,09,19.80
2018,07,16,09,10,19.80
2018,07,16,09,11,19.80
2018,07,16,09,12,19.80
2018,07,16,09,13,19.90
2018,07,16,09,14,19.90
2018,07,16,09,15,19.90
2018,07,16,09,16,19.90
2018,07,16,09,17,20.00
2018,07,16,09,18,20.00
2018,07,16,09,19,20.10
2018,07,16,09,20,20.10
2018,07,16,09,21,20.20
2018,07,16,09,22,20.20
2018,07,16,09,23,20.20
2018,07,16,09,24,20.30
2018,07,16,09,25,20.40
2018,07,16,09,26,20.50
2018,07,16,09,27,20.60
2018,07,16,09,28,20.70
2018,07,16,09,29,20.80
2018,07,16,09,30,20.80
2018,07,16,09,31,20.80
2018,07,16,09,32,20.90
2018,07,16,09,33,20.90
2018,07,16,09,34,20.90
2018,07,16,09,35,21.00
2018,07,16,09,36,21.10
2018,07,16,09,37,21.10
2018,07,16,09,38,21.20
2018,07,16,09,39,21.20
2018,07,16,09,40,21.20
2018,07,16,09,41,21.20
2018,07,16,09,42,21.20
2018,07,16,09,43,21.20
2018,07,16,09,44,21.30
2018,07,16,09,45,21.40
2018,07,16,09,46,21.50
2018,07,16,09,47,21.60
2018,07,16,09,48,21.80
2018,07,16,09,49,21.90
2018,07,16,09,50,21.90
2018,07,16,09,51,22.00
2018,07,16,09,52,21.90
2018,07,16,09,53,21.90
2018,07,16,09,54,21.90
2018,07,16,09,55,21.90
2018,07,16,09,56,21.90
2018,07,16,09,57,21.90
2018,07,16,09,58,22.00
2018,07,16,09,59,22.10
2018,07,16,10,00,22.10
2018,07,16,10,01,22.20
2018,07,16,10,02,22.30
2018,07,16,10,03,22.40
2018,07,16,10,04,22.40
2018,07,16,10,05,22.40
2018,07,16,10,06,22.50
2018,07,16,10,07,22.50
2018,07,16,10,08,22.60
2018,07,16,10,09,22.60
2018,07,16,10,10,22.70
2018,07,16,10,11,22.70
2018,07,16,10,12,22.70
2018,07,16,10,13,22.70
2018,07,16,10,14,22.70
2018,07,16,10,15,22.70
2018,07,16,10,16,22.70
2018,07,16,10,17,22.70
2018,07,16,10,18,22.80
2018,07,16,10,19,22.80
2018,07,16,10,20,22.80
2018,07,16,10,21,22.90
2018,07,16,10,22,22.90
2018,07,16,10,23,23.00
2018,07,16,10,24,22.90
2018,07,16,10,25,22.90
2018,07,16,10,26,22.90
2018,07,16,10,27,22.90
2018,07,16,10,28,22.90
2018,07,16,10,29,22.90
2018,07,16,10,30,22.90
2018,07,16,10,31,22.90
2018,07,16,10,32,22.90
2018,07,16,10,33,23.00
2018,07,16,10,34,23.00
2018,07,16,10,35,23.00
2018,07,16,10,36,22.90
2018,07,16,10,37,22.90
2018,07,16,10,38,23.00
2018,07,16,10,39,23.10
2018,07,16,10,40,23.20
2018,07,16,10,41,23.20
2018,07,16,10,42,23.30
2018,07,16,10,43,23.30
2018,07,16,10,44,23.40
2018,07,16,10,45,23.50
2018,07,16,10,46,23.60
2018,07,16,10,47,23.70
2018,07,16,10,48,23.70
2018,07,16,10,49,23.80
2018,07,16,10,50,23.80
2018,07,16,10,51,23.80
2018,07,16,10,52,23.80
2018,07,16,10,53,23.80
2018,07,16,10,54,23.80
2018,07,16,10,55,23.80
2018,07,16,10,56,23.90
2018,07,16,10,57,23.90
2018,07,16,10,58,23.90
2018,07,16,10,59,24.00
2018,07,16,11,00,24.00
2018,07,16,11,01,24.10
2018,07,16,11,02,24.10
2018,07,16,11,03,24.10
2018,07,16,11,04,24.10
2018,07,16,11,05,24.20
2018,07,16,11,06,24.20
2018,07,16,11,07,24.20
2018,07,16,11,08,24.20
2018,07,16,11,09,24.20
2018,07,16,11,10,24.20
2018,07,16,11,11,24.20
2018,07,16,11,12,24.20
2018,07,16,11,13,24.20
2018,07,16,11,14,24.20
2018,07,16,11,15,24.20
2018,07,16,11,16,24.30
2018,07,16,11,17,24.30
2018,07,16,11,18,24.30
2018,07,16,11,19,24.30
2018,07,16,11,20,24.40
2018,07,16,11,21,24.40
2018,07,16,11,22,24.50
2018,07,16,11,23,24.60
2018,07,16,11,24,24.60
2018,07,16,11,25,24.70
2018,07,16,11,26,24.80
2018,07,16,11,27,24.90
2018,07,16,11,28,24.90
2018,07,16,11,29,24.90
2018,07,16,11,30,24.90
2018,07,16,11,31,25.00
2018,07,16,11,32,24.90
2018,07,16,11,33,24.90
2018,07,16,11,34,24.90
2018,07,16,11,35,24.80
2018,07,16,11,36,24.80
2018,07,16,11,37,24.80
2018,07,16,11,38,24.90
2018,07,16,11,39,24.90
2018,07,16,11,40,24.90
2018,07,16,11,41,24.90
2018,07,16,11,42,24.90
2018,07,16,11,43,24.90
2018,07,16,11,44,24.90
2018,07,16,11,45,25.00
2018,07,16,11,46,25.00
2018,07,16,11,47,25.10
2018,07,16,11,48,25.10
2018,07,16,11,49,25.00
2018,07,16,11,50,25.10
2018,07,16,11,51,25.10
2018,07,16,11,52,25.10
2018,07,16,11,53,25.20
2018,07,16,11,54,25.20
2018,07,16,11,55,25.30
2018,07,16,11,56,25.40
2018,07,16,11,57,25.50
2018,07,16,11,58,25.50
2018,07,16,11,59,25.50
2018,07,16,12,00,25.50
2018,07,16,12,01,25.50
2018,07,16,12,02,25.50
2018,07,16,12,03,25.60
2018,07,16,12,04,25.70
2018,07,16,12,05,25.80
2018,07,16,12,06,25.80
2018,07,16,12,07,25.80
2018,07,16,12,08,25.80
2018,07,16,12,09,25.80
2018,07,16,12,10,25.90
2018,07,16,12,11,25.80
2018,07,16,12,12,25.80
2018,07,16,12,13,25.70
2018,07,16,12,14,25.70
2018,07,16,12,15,25.60
2018,07,16,12,16,25.60
2018,07,16,12,17,25.70
2018,07,16,12,18,25.70
2018,07,16,12,19,25.70
2018,07,16,12,20,25.70
2018,07,16,12,21,25.80
2018,07,16,12,22,25.80
2018,07,16,12,23,25.90
2018,07,16,12,24,25.90
2018,07,16,12,25,26.00
2018,07,16,12,26,26.10
2018,07,16,12,27,26.10
2018,07,16,12,28,26.20
2018,07,16,12,29,26.30
2018,07,16,12,30,26.40
2018,07,16,12,31,26.50
2018,07,16,12,32,26.70
2018,07,16,12,33,26.80
2018,07,16,12,34,26.80
2018,07,16,12,35,26.90
2018,07,16,12,36,26.90
2018,07,16,12,37,26.80
2018,07,16,12,38,26.80
2018,07,16,12,39,26.80
2018,07,16,12,40,26.70
2018,07,16,12,41,26.70
2018,07,16,12,42,26.70
2018,07,16,12,43,26.70
2018,07,16,12,44,26.80
2018,07,16,12,45,26.80
2018,07,16,12,46,26.70
2018,07,16,12,47,26.70
2018,07,16,12,48,26.70
2018,07,16,12,49,26.70
2018,07,16,12,50,26.70
2018,07,16,12,51,26.60
2018,07,16,12,52,26.50
2018,07,16,12,53,26.40
2018,07,16,12,54,26.30
2018,07,16,12,55,26.30
2018,07,16,12,56,26.30
2018,07,16,12,57,26.30
2018,07,16,12,58,26.30
2018,07,16,12,59,26.30
2018,07,16,13,00,26.40
2018,07,16,13,01,26.50
2018,07,16,13,02,26.60
2018,07,16,13,03,26.60
2018,07,16,13,04,26.70
2018,07,16,13,05,26.70
2018,07,16,13,06,26.80
2018,07,16,13,07,26.80
2018,07,16,13,08,26.90
2018,07,16,13,09,27.00
2018,07,16,13,10,27.10
2018,07,16,13,11,27.10
2018,07,16,13,12,27.10
2018,07,16,13,13,27.20
2018,07,16,13,14,27.10
2018,07,16,13,15,27.00
2018,07,16,13,16,27.00
2018,07,16,13,17,26.90
2018,07,16,13,18,26.80
2018,07,16,13,19,26.80
2018,07,16,13,20,26.80
2018,07,16,13,21,26.80
2018,07,16,13,22,26.80
2018,07,16,13,23,26.90
2018,07,16,13,24,26.90
2018,07,16,13,25,27.00
2018,07,16,13,26,27.00
2018,07,16,13,27,27.00
2018,07,16,13,28,27.10
2018,07,16,13,29,27.10
2018,07,16,13,30,27.10
2018,07,16,13,31,27.10
2018,07,16,13,32,27.20
2018,07,16,13,33,27.20
2018,07,16,13,34,27.30
2018,07,16,13,35,27.40
2018,07,16,13,36,27.50
2018,07,16,13,37,27.50
2018,07,16,13,38,27.40
2018,07,16,13,39,27.40
2018,07,16,13,40,27.40
2018,07,16,13,41,27.40
2018,07,16,13,42,27.50
2018,07,16,13,43,27.50
2018,07,16,13,44,27.60
2018,07,16,13,45,27.70
2018,07,16,13,46,27.70
2018,07,16,13,47,27.70
2018,07,16,13,48,27.70
2018,07,16,13,49,27.70
2018,07,16,13,50,27.70
2018,07,16,13,51,27.70
2018,07,16,13,52,27.70
2018,07,16,13,53,27.70
2018,07,16,13,54,27.70
2018,07,16,13,55,27.70
2018,07,16,13,56,27.70
2018,07,16,13,57,27.70
2018,07,16,13,58,27.80
2018,07,16,13,59,27.80
2018,07,16,14,00,27.90
2018,07,16,14,01,27.90
2018,07,16,14,02,28.00
2018,07,16,14,03,28.00
2018,07,16,14,04,28.10
2018,07,16,14,05,28.10
2018,07,16,14,06,28.20
2018,07,16,14,07,28.20
2018,07,16,14,08,28.20
2018,07,16,14,09,28.20
2018,07,16,14,10,28.20
2018,07,16,14,11,28.20
2018,07,16,14,12,28.10
2018,07,16,14,13,28.10
2018,07,16,14,14,28.20
2018,07,16,14,15,28.20
2018,07,16,14,16,28.20
2018,07,16,14,17,28.20
2018,07,16,14,18,28.30
2018,07,16,14,19,28.30
2018,07,16,14,20,28.30
2018,07,16,14,21,28.40
2018,07,16,14,22,28.40
2018,07,16,14,23,28.40
2018,07,16,14,24,28.30
2018,07,16,14,25,28.30
2018,07,16,14,26,28.30
2018,07,16,14,27,28.30
2018,07,16,14,28,28.30
2018,07,16,14,29,28.30
2018,07,16,14,30,28.30
2018,07,16,14,31,28.30
2018,07,16,14,32,28.30
2018,07,16,14,33,28.30
2018,07,16,14,34,28.30
2018,07,16,14,35,28.30
2018,07,16,14,36,28.40
2018,07,16,14,37,28.40
2018,07,16,14,38,28.30
2018,07,16,14,39,28.30
2018,07,16,14,40,28.30
2018,07,16,14,41,28.30
2018,07,16,14,42,28.40
2018,07,16,14,43,28.40
2018,07,16,14,44,28.50
2018,07,16,14,45,28.50
2018,07,16,14,46,28.50
2018,07,16,14,47,28.50
2018,07,16,14,48,28.50
2018,07,16,14,49,28.60
2018,07,16,14,50,28.50
2018,07,16,14,51,28.50
2018,07,16,14,52,28.50
2018,07,16,14,53,28.50
2018,07,16,14,54,28.50
2018,07,16,14,55,28.50
2018,07,16,14,56,28.60
2018,07,16,14,57,28.60
2018,07,16,14,58,28.60
2018,07,16,14,59,28.60
2018,07,16,15,00,28.70
2018,07,16,15,01,28.80
2018,07,16,15,02,28.80
2018,07,16,15,03,28.80
2018,07,16,15,04,28.80
2018,07,16,15,05,28.80
2018,07,16,15,06,28.80
2018,07,16,15,07,28.80
2018,07,16,15,08,28.80
2018,07,16,15,09,28.80
2018,07,16,15,10,28.80
2018,07,16,15,11,28.80
2018,07,16,15,12,28.80
2018,07,16,15,13,28.90
2018,07,16,15,14,28.90
2018,07,16,15,15,29.00
2018,07,16,15,16,29.10
2018,07,16,15,17,29.10
2018,07,16,15,18,29.20
2018,07,16,15,19,29.20
2018,07,16,15,20,29.30
2018,07,16,15,21,29.30
2018,07,16,15,22,29.30
2018,07,16,15,23,29.30
2018,07,16,15,24,29.20
2018,07,16,15,25,29.20
2018,07,16,15,26,29.30
2018,07,16,15,27,29.30
2018,07,16,15,28,29.30
2018,07,16,15,29,29.40
2018,07,16,15,30,29.40
2018,07,16,15,31,29.40
2018,07,16,15,32,29.40
2018,07,16,15,33,29.50
2018,07,16,15,34,29.50
2018,07,16,15,35,29.60
2018,07,16,15,36,29.60
2018,07,16,15,37,29.50
2018,07,16,15,38,29.50
2018,07,16,15,39,29.50
2018,07,16,15,40,29.50
2018,07,16,15,41,29.60
2018,07,16,15,42,29.60
2018,07,16,15,43,29.60
2018,07,16,15,44,29.70
2018,07,16,15,45,29.80
2018,07,16,15,46,29.80
2018,07,16,15,47,29.80
2018,07,16,15,48,29.80
2018,07,16,15,49,29.80
2018,07,16,15,50,29.90
2018,07,16,15,51,29.90
2018,07,16,15,52,29.90
2018,07,16,15,53,29.90
2018,07,16,15,54,29.90
2018,07,16,15,55,29.90
2018,07,16,15,56,29.90
2018,07,16,15,57,29.90
2018,07,16,15,58,29.90
2018,07,16,15,59,30.00
2018,07,16,16,00,30.00
2018,07,16,16,01,30.10
2018,07,16,16,02,30.10
2018,07,16,16,03,30.20
2018,07,16,16,04,30.20
2018,07,16,16,05,30.30
2018,07,16,16,06,30.30
2018,07,16,16,07,30.30
2018,07,16,16,08,30.30
2018,07,16,16,09,30.30
2018,07,16,16,10,30.40
2018,07,16,16,11,30.40
2018,07,16,16,12,30.40
2018,07,16,16,13,30.40
2018,07,16,16,14,30.50
2018,07,16,16,15,30.40
2018,07,16,16,16,30.40
2018,07,16,16,17,30.40
2018,07,16,16,18,30.30
2018,07,16,16,19,30.30
2018,07,16,16,20,30.20
2018,07,16,16,21,30.20
2018,07,16,16,22,30.20
2018,07,16,16,23,30.20
2018,07,16,16,24,30.20
2018,07,16,16,25,30.30
2018,07,16,16,26,30.30
2018,07,16,16,27,30.30
2018,07,16,16,28,30.40
2018,07,16,16,29,30.40
2018,07,16,16,30,30.30
2018,07,16,16,31,30.30
2018,07,16,16,32,30.40
2018,07,16,16,33,30.50
2018,07,16,16,34,30.50
2018,07,16,16,35,30.50
2018,07,16,16,36,30.50
2018,07,16,16,37,30.50
2018,07,16,16,38,30.50
2018,07,16,16,39,30.60
2018,07,16,16,40,30.70
2018,07,16,16,41,30.70
2018,07,16,16,42,30.80
2018,07,16,16,43,30.70
2018,07,16,16,44,30.60
2018,07,16,16,45,30.60
2018,07,16,16,46,30.50
2018,07,16,16,47,30.40
2018,07,16,16,48,30.30
2018,07,16,16,49,30.30
2018,07,16,16,50,30.30
2018,07,16,16,51,30.30
2018,07,16,16,52,30.30
2018,07,16,16,53,30.30
2018,07,16,16,54,30.30
2018,07,16,16,55,30.30
2018,07,16,16,56,30.30
2018,07,16,16,57,30.30
2018,07,16,16,58,30.40
2018,07,16,16,59,30.40
2018,07,16,17,00,30.40
2018,07,16,17,01,30.40
2018,07,16,17,02,30.40
2018,07,16,17,03,30.40
2018,07,16,17,04,30.40
2018,07,16,17,05,30.40
2018,07,16,17,06,30.40
2018,07,16,17,07,30.40
2018,07,16,17,08,30.40
2018,07,16,17,09,30.50
2018,07,16,17,10,30.50
2018,07,16,17,11,30.60
2018,07,16,17,12,30.60
2018,07,16,17,13,30.60
2018,07,16,17,14,30.60
2018,07,16,17,15,30.60
2018,07,16,17,16,30.60
2018,07,16,17,17,30.60
2018,07,16,17,18,30.60
2018,07,16,17,19,30.60